UITMSAT-1 (43589 NORAD) Tracking and Keplerian Element Data

This shows tracking and keplerian element data for the satellite.

Feedback or suggestion? Click here.




ElementValue
Catalog43589
NameUITMSAT-1
Epoch Orbit1487
Epoch Day317.56066134
Epoch Year2018
RAAN353.1778
Inclination51.6398
Eccentricity0.0006731
Argument of Perigee58.2947
Mean Anonmoly301.87
Mean Motion15.56525604
Decay Rate9.615E-05
L11 43589U 98067PD 18317.56066134 .00009615 00000-0 13958-3 0 9990
L22 43589 51.6398 353.1778 0006731 58.2947 301.8700 15.56525604 14877

Live tracking and technical data element details for UITMSAT-1 (NORAD 43589). UITMSAT-1 can be tracked NOW for your location showing map with azimuth and elevation plus other details from your city location.

Track the satellite on the map from your city or location and see movement details for azimuth, elevation, latitude, longitude, range, height, and movement on the map or in text.







IsCatalogInMostPopularTable: catalog: 43589, numindb: 47
Update: records affected: 1



GetName: 43589 UITMSAT-1

Hit Count: updated at: Thu, 15 Nov 2018 03:41:42 GMT